Weather in Poninka

Ukraine / Khmelnitsky District     50°11′06″N   27°33′49″E
temp.,
°C
wind,
m/s
gust,
m/s
humid.,
%
clouds,
%
prec.,
mm/h
press.,
hPa
HPBL,
m
17 august, wed
wed1700:00+17e4119475 0.0 1009325
03:00+16e489852 0.0 1009258
06:00+17e3591100 0.0 1009384
09:00+19ene238194 0.0 1010477
12:00+22ne557392 0.5 1010753
15:00+25ne565632 1.3 10091488
18:00+26ne365539 0.9 10091473
21:00+20n238116 1.6 101041
18 august, thu
thu1800:00+18nne22885 0.7 101012
03:00+17ene22895 0.7 101114
06:00+16nne22905 0.0 101120
09:00+21nne34785 0.0 1012315
12:00+27nne34450 0.0 10121077
15:00+29nne45370 0.0 10111616
18:00+29nne45380 0.0 10111654
21:00+22ne33570 0.0 101227
19 august, fri
fri1900:00+20ne33640 0.0 101333
03:00+18ne33700 0.0 101335
06:00+17ne34760 0.0 101355
09:00+22ne46580 0.0 1014367
12:00+27ne56450 0.0 10131219
15:00+29ene45380 0.0 10131853
18:00+28ne55412 0.0 10131854
21:00+22ne37635 0.0 1013114
20 august, sat
sat2000:00+19e39785 0.0 1014196
03:00+18e22901 0.0 101416
06:00+17e339312 0.0 101455
09:00+22ese356835 0.0 1014401
12:00+28ese44480 0.0 10131369
15:00+31ese34380 0.0 10122124
18:00+31e443716 0.0 10112216
21:00+26ese51147100 0.0 1012416
21 august, sun
sun2100:00+21ese396114 0.0 1012169
03:00+20ese3764100 0.0 1012137
06:00+21e3660100 0.0 1012145
09:00+23ese355581 0.0 1012266
12:00+29ese244047 0.0 10111091
15:00+32ene2333100 0.0 10102689
18:00+27ene2447100 0.1 1010114
21:00+24s2360100 0.4 101132